New Richmond, WI

8:44 PM CDT on June 23, 2017 (GMT -0500)
New Richmond Municipal

Weather History for KRNH - November, 2012

Change the Weather History Date:

Wednesday, November 21, 2012

  Actual Average (KSTP) Record (KSTP)
Temperature  
Mean Temperature 46 °F -  
Max Temperature 59 °F 37 °F 61 °F (2001)
Min Temperature 32 °F 23 °F 3 °F (2000)
Degree Days  
Heating Degree Days 20    
Moisture  
Dew Point 36 °F    
Average Humidity 65    
Maximum Humidity 100    
Minimum Humidity 45    
Precipitation  
Precipitation 0.00 in - - ()
Sea Level Pressure  
Sea Level Pressure 29.90 in    
Wind  
Wind Speed 7 mph (South)    
Max Wind Speed 13 mph    
Max Gust Speed 20 mph    
Visibility 10 miles    
Events      
Averages and records for this station are not official NWS values.
T = Trace of Precipitation, MM = Missing Value Source: NWS Daily Summary

Daily Weather History Graph

Daily Weather History Graph

Search for Another Location

Airport or City:

Trip Planner

Search our weather history database for the weather conditions in past years. The results will help you decide how hot, cold, wet, or windy it might be!

Date:

Astronomy

Nov. 21, 2012 Rise Set
Actual Time 7:16 AM CST 4:35 PM CST
Civil Twilight 6:44 AM CST 5:07 PM CST
Nautical Twilight 6:08 AM CST 5:43 PM CST
Astronomical Twilight 5:33 AM CST 6:18 PM CST
Moon 1:07 PM CST (11/21) 12:19 AM CST (11/21)
Length of Visible Light 10h 23m
Length of Day
9h 18m
First Quarter, 62% of the Moon is Illuminated
Nov 21
First Quarter
Nov 28
Full
Dec 6
Last Quarter
Dec 13
New
Dec 19
First Quarter

Hourly Weather History & Observations

Time (CST) Temp. Windchill Dew Point Humidity Pressure Visibility Wind Dir Wind Speed Gust Speed Precip Events Conditions
12:15 AM 33.8 °F 29.6 °F 33.8 °F 100% 30.06 in 5.0 mi SE 4.6 mph - N/A   Clear
12:35 AM 32.0 °F 27.5 °F 32.0 °F 100% 30.05 in 5.0 mi SE 4.6 mph - N/A   Clear
12:55 AM 33.8 °F 29.6 °F 33.8 °F 100% 30.05 in 5.0 mi SSE 4.6 mph - N/A   Clear
1:15 AM 32.0 °F 27.5 °F 32.0 °F 100% 30.04 in 5.0 mi SE 4.6 mph - N/A   Clear
1:35 AM 33.8 °F 28.6 °F 33.8 °F 100% 30.04 in 7.0 mi SSE 5.8 mph - N/A   Clear
1:55 AM 35.6 °F 30.7 °F 33.8 °F 93% 30.03 in 10.0 mi SSE 5.8 mph - N/A   Clear
2:15 AM 37.4 °F 32.8 °F 33.8 °F 87% 30.03 in 10.0 mi SSE 5.8 mph - N/A   Clear
2:35 AM 37.4 °F 32.1 °F 33.8 °F 87% 30.02 in 10.0 mi SSE 6.9 mph - N/A   Clear
2:55 AM 39.2 °F 33.0 °F 33.8 °F 81% 30.01 in 10.0 mi SSE 9.2 mph - N/A   Clear
3:15 AM 41.0 °F 34.3 °F 33.8 °F 76% 29.99 in 10.0 mi South 11.5 mph - N/A   Clear
3:35 AM 41.0 °F 34.3 °F 33.8 °F 76% 29.98 in 10.0 mi SSE 11.5 mph - N/A   Clear
3:55 AM 41.0 °F 34.7 °F 32.0 °F 70% 29.98 in 10.0 mi South 10.4 mph - N/A   Clear
4:15 AM 41.0 °F 35.2 °F 32.0 °F 70% 29.97 in 10.0 mi South 9.2 mph - N/A   Clear
4:35 AM 41.0 °F 36.4 °F 32.0 °F 70% 29.98 in 10.0 mi South 6.9 mph - N/A   Clear
4:55 AM 39.2 °F 35.0 °F 32.0 °F 75% 29.98 in 10.0 mi South 5.8 mph - N/A   Clear
5:15 AM 41.0 °F 36.4 °F 32.0 °F 70% 29.98 in 10.0 mi SSE 6.9 mph - N/A   Clear
5:35 AM 39.2 °F 34.2 °F 32.0 °F 75% 29.97 in 10.0 mi SSE 6.9 mph - N/A   Clear
6:15 AM 39.2 °F 35.0 °F 32.0 °F 75% 29.97 in 10.0 mi SSE 5.8 mph - N/A   Clear
6:35 AM 37.4 °F 32.1 °F 32.0 °F 81% 29.97 in 10.0 mi SSE 6.9 mph - N/A   Clear
6:55 AM 37.4 °F 32.1 °F 32.0 °F 81% 29.96 in 10.0 mi SSE 6.9 mph - N/A   Clear
7:15 AM 37.4 °F 32.8 °F 32.0 °F 81% 29.97 in 10.0 mi South 5.8 mph - N/A   Clear
7:35 AM 37.4 °F 33.8 °F 32.0 °F 81% 29.97 in 10.0 mi South 4.6 mph - N/A   Clear
7:55 AM 41.0 °F 39.0 °F 33.8 °F 76% 29.97 in 10.0 mi South 3.5 mph - N/A   Clear
8:15 AM 41.0 °F 38.0 °F 33.8 °F 76% 29.97 in 10.0 mi South 4.6 mph - N/A   Clear
8:35 AM 42.8 °F 39.3 °F 33.8 °F 70% 29.97 in 10.0 mi South 5.8 mph - N/A   Clear
8:55 AM 42.8 °F 39.3 °F 35.6 °F 76% 29.96 in 10.0 mi South 5.8 mph - N/A   Clear
9:15 AM 46.4 °F 42.4 °F 35.6 °F 66% 29.96 in 10.0 mi SSW 8.1 mph - N/A   Clear
9:35 AM 46.4 °F 41.5 °F 35.6 °F 66% 29.96 in 10.0 mi SSW 10.4 mph - N/A   Clear
9:55 AM 50.0 °F - 35.6 °F 58% 29.95 in 10.0 mi SSW 11.5 mph - N/A   Clear
10:15 AM 50.0 °F - 35.6 °F 58% 29.95 in 10.0 mi SW 12.7 mph 17.3 mph N/A   Clear
10:35 AM 51.8 °F - 35.6 °F 54% 29.95 in 10.0 mi SW 11.5 mph - N/A   Clear
10:55 AM 51.8 °F - 35.6 °F 54% 29.95 in 10.0 mi SW 8.1 mph - N/A   Clear
11:15 AM 51.8 °F - 35.6 °F 54% 29.94 in 10.0 mi SW 9.2 mph - N/A   Clear
11:35 AM 53.6 °F - 35.6 °F 51% 29.93 in 10.0 mi SSW 9.2 mph - N/A   Clear
11:55 AM 53.6 °F - 35.6 °F 51% 29.91 in 10.0 mi SSW 11.5 mph - N/A   Clear
12:15 PM 53.6 °F - 37.4 °F 54% 29.90 in 10.0 mi SSW 9.2 mph - N/A   Clear
12:35 PM 55.4 °F - 37.4 °F 51% 29.90 in 10.0 mi SSW 8.1 mph - N/A   Clear
12:55 PM 55.4 °F - 37.4 °F 51% 29.90 in 10.0 mi SSW 10.4 mph - N/A   Clear
1:15 PM 55.4 °F - 37.4 °F 51% 29.89 in 10.0 mi South 8.1 mph - N/A   Clear
1:35 PM 55.4 °F - 37.4 °F 51% 29.89 in 10.0 mi SSW 8.1 mph - N/A   Clear
1:55 PM 55.4 °F - 37.4 °F 51% 29.88 in 10.0 mi SSW 6.9 mph - N/A   Clear
2:15 PM 55.4 °F - 37.4 °F 51% 29.88 in 10.0 mi South 5.8 mph - N/A   Clear
2:35 PM 59.0 °F - 37.4 °F 45% 29.87 in 10.0 mi South 8.1 mph - N/A   Clear
2:55 PM 59.0 °F - 37.4 °F 45% 29.87 in 10.0 mi South 10.4 mph - N/A   Clear
3:15 PM 59.0 °F - 37.4 °F 45% 29.86 in 10.0 mi South 6.9 mph - N/A   Clear
3:35 PM 59.0 °F - 37.4 °F 45% 29.86 in 10.0 mi South 8.1 mph - N/A   Clear
3:55 PM 57.2 °F - 37.4 °F 48% 29.85 in 10.0 mi South 4.6 mph - N/A   Clear
4:15 PM 55.4 °F - 37.4 °F 51% 29.85 in 10.0 mi SE 3.5 mph - N/A   Clear
4:35 PM 53.6 °F - 37.4 °F 54% 29.84 in 10.0 mi SE 3.5 mph - N/A   Clear
4:55 PM 50.0 °F - 37.4 °F 62% 29.84 in 10.0 mi SE 4.6 mph - N/A   Clear
5:15 PM 51.8 °F - 37.4 °F 58% 29.83 in 7.0 mi SE 6.9 mph - N/A   Clear
5:35 PM 50.0 °F - 37.4 °F 62% 29.82 in 10.0 mi ESE 4.6 mph - N/A   Clear
5:55 PM 48.2 °F - 37.4 °F 66% 29.82 in 10.0 mi SE 6.9 mph - N/A   Clear
6:15 PM 48.2 °F - 35.6 °F 62% 29.81 in 10.0 mi SE 5.8 mph - N/A   Clear
6:35 PM 50.0 °F - 37.4 °F 62% 29.81 in 10.0 mi SSE 6.9 mph - N/A   Clear
6:55 PM 51.8 °F - 37.4 °F 58% 29.80 in 10.0 mi SSE 8.1 mph - N/A   Clear
7:15 PM 53.6 °F - 37.4 °F 54% 29.80 in 10.0 mi SSE 8.1 mph - N/A   Clear
7:35 PM 51.8 °F - 37.4 °F 58% 29.80 in 10.0 mi SSE 5.8 mph - N/A   Clear
7:55 PM 51.8 °F - 37.4 °F 58% 29.79 in 10.0 mi South 9.2 mph - N/A   Clear
8:15 PM 53.6 °F - 39.2 °F 58% 29.79 in 10.0 mi South 9.2 mph - N/A   Clear
8:35 PM 53.6 °F - 39.2 °F 58% 29.79 in 10.0 mi South 9.2 mph - N/A   Clear
8:55 PM 53.6 °F - 39.2 °F 58% 29.79 in 10.0 mi South 10.4 mph - N/A   Clear
9:15 PM 53.6 °F - 39.2 °F 58% 29.78 in 10.0 mi South 9.2 mph - N/A   Clear
9:35 PM 53.6 °F - 41.0 °F 62% 29.78 in 10.0 mi South 9.2 mph - N/A   Clear
9:55 PM 53.6 °F - 41.0 °F 62% 29.77 in 10.0 mi South 10.4 mph - N/A   Clear
10:15 PM 55.4 °F - 41.0 °F 58% 29.76 in 10.0 mi South 10.4 mph - N/A   Clear
10:35 PM 55.4 °F - 41.0 °F 58% 29.75 in 10.0 mi South 10.4 mph - N/A   Clear
10:55 PM 53.6 °F - 41.0 °F 62% 29.75 in 10.0 mi South 11.5 mph - N/A   Clear
11:15 PM 53.6 °F - 41.0 °F 62% 29.74 in 10.0 mi South 12.7 mph 17.3 mph N/A   Clear
11:35 PM 55.4 °F - 41.0 °F 58% 29.73 in 10.0 mi South 12.7 mph 19.6 mph N/A   Clear
11:55 PM 53.6 °F - 41.0 °F 62% 29.72 in 10.0 mi South 12.7 mph - N/A   Clear